Location: Darlington Observatory
(36.4817°N, 105.8156°W)
Time: 22:12:36
(UTC-07:00)

MOS 1 - Visible Passes

Search period start: 25 November 2014 00:00
Search period end: 05 December 2014 00:00
Orbit: 879 x 892 km, 99.2° (Epoch: 25 November)

Date Brightness Start Highest point End Pass type
(mag) Time Alt. Az. Time Alt. Az. Time Alt. Az.
25 Nov 7.2 03:27:59 10° ENE 03:30:12 12° E 03:32:25 10° ESE visible
25 Nov 4.2 05:06:22 10° N 05:12:04 77° WNW 05:17:45 10° SSW visible
26 Nov 7.2 03:26:39 10° ENE 03:28:36 12° E 03:30:33 10° ESE visible
26 Nov 4.2 05:04:48 10° N 05:10:30 80° WNW 05:16:11 10° SSW visible
27 Nov 7.3 03:25:21 10° ENE 03:27:00 11° E 03:28:39 10° ESE visible
27 Nov 4.2 05:03:13 10° NNE 05:08:56 82° WNW 05:14:37 10° SSW visible
28 Nov 7.3 03:24:09 10° ENE 03:25:25 11° E 03:26:40 10° ESE visible
28 Nov 4.2 05:01:38 10° NNE 05:07:22 85° WNW 05:13:03 10° SSW visible
29 Nov 7.3 03:23:10 10° E 03:23:49 10° E 03:24:27 10° E visible
29 Nov 4.2 05:00:04 10° NNE 05:05:47 88° WNW 05:11:29 10° SSW visible
30 Nov 4.2 04:58:29 10° NNE 05:04:13 90° ESE 05:09:55 10° SSW visible
01 Dec 4.3 04:56:55 10° NNE 05:02:39 87° ESE 05:08:20 10° SSW visible
02 Dec 4.3 04:55:20 10° NNE 05:01:04 84° ESE 05:06:46 10° SSW visible
03 Dec 4.3 04:53:46 10° NNE 04:59:30 82° ESE 05:05:11 10° SSW visible
04 Dec 4.4 04:52:11 10° NNE 04:57:55 79° ESE 05:03:36 10° S visible
